STARLINK-32203, 60331

Orbit data source: Space-Track

STARLINK-32203, 60331 is a payload satellite owned by SpaceX/Seattle (US) in LEO that was launched on Fri, 02 Aug 2024 UTC via an FALCON 9 launch vehicle from the Air Force Eastern Test Range (AFETR). Payload-class satellites include a variety of spacecraft equipped with specific instruments for various scientific and technological missions. These include communications satellites like Starlink; space stations such as the ISS; scientific satellites like the Hubble; Earth observation satellites from companies like Planet Labs, Umbra, and HawkEye 360; GPS; miniature CubeSats for education and research; and military/defense satellites.

Loading next visibility...
Identifier
60331, 2024-136C
Orbit
LEO
Last TLE update
15 hours ago
Origin
Manufacturer
SpaceX/Seattle
Mission
Operational Commercial Communications
Bus & Motor
STARLINK V2M, Unknown motor
Mass
730 kg wet, ~700 kg dry
Launch date (UTC)
2024-08-02 (9 months ago)
Launch vehicle
FALCON 9
Launch site
Air Force Eastern Test Range (AFETR)
Object type
Payload
Rocket body
Debris
Shape & HBR
Box + 2 Pan, 29 m
Radar Cross Section
33.884 m², Large (>1 m²)

Expand to show TLE details & history

TLE from 15 hours ago
0 STARLINK-32203
1 60331U 24136C   25115.20120681 -.00000269  00000-0  30454-5 0  9992
2 60331  53.1593 104.9964 0001070  97.1675 262.9447 15.30203921 42104
Epoch: 2025-04-25T04:49Z
Definitive object data (Epoch: 2025-04-25T04:49:44.268Z)
Latitude
-0.00005°
Longitude
179.10023°
Altitude
476.193 km
Speed
7.629 km/s
True Right ascension
06h 59m 59s
True Declination
0° 00' 00"
Sunlit
Object was in daylight at TLE epoch
Visualization TLE readout
Latitude
53.06083°
Longitude
-85.9835°
Altitude
480.989 km
Speed
7.632 km/s
Apparent Right ascension
14h 01m 28s
Apparent Declination
8° 51' 46"
Sunlit
Object is in full shadow
Visualization observer readout
Local Sidereal Time
02:36:40
Azimuth
11.474° NNE
Elevation
-40.545°
Doppler factor
1
Orbital elements
Apogee altitude
476.193 km
Perigee altitude
474.727 km
Semi-major axis
6,853.597 km
Eccentricity
0.000107
Inclination
53.1593°
RAAN
104.9964°
Arg. of periapsis
97.1675°
True anomaly
262.93253°
Mean anomaly
262.9447°
Eccentric anomaly
262.93862°
Mean motion
3.8253 °/min
BSTAR
0.0000030454
Orbital period
94.11 mins
Loading maneuver chart data...
Loading SW <> Apogee altitude chart data...
Loading historical data...
Loading historical data...
Loading historical data...
Loading historical data...
Loading historical data...
Loading historical data...
Loading historical data...

STARLINK-32203 Visibility forecast

Observer location: undefined°, undefined°

Span
Click to sort rows by Start time (UTC) header in descending order
Start Az.
Max El. time (UTC)
Max El. Az.
Max El.
End time (UTC)
End Az.
6 mins2025-04-26 01:21:54.475Z200.554° SSW2025-04-26 01:24:54.475Z135.516° SSE31.939°2025-04-26 01:27:54.475Z67.118° ENE
5 mins2025-04-26 03:00:54.475Z281.769° WNW2025-04-26 03:02:54.475Z330.181° NNW25.592°2025-04-26 03:05:54.475Z30.394° NE
5 mins2025-04-26 07:57:54.475Z337.558° N2025-04-26 07:59:54.475Z35.145° NE30.63°2025-04-26 08:02:54.475Z98.905° ESE
4 mins2025-04-26 09:35:54.475Z271.919° WNW2025-04-26 09:37:54.475Z220.997° SW24.452°2025-04-26 09:39:54.475Z178.434° S
|